User: anonymous   Login
Location: Caltech
(34.1382°N, 118.1253°W)
Time: 16:52:29
(UTC-07:00)
Language:

UOSAT-12 - Orbit

View from above orbital plane
View from above orbital plane
View from above satellite
View from above satellite

Ground track
Ground track

The orbit data is extracted from the following two-line orbital elements,

1 25693U 99021A   16119.83362337 -.00000026  00000-0  15217-4 0  9998
2 25693  64.5560 322.6168 0012033 211.3212 148.7177 14.80641645918813
Epoch (UTC): 28 April 2016 20:00:25
Eccentricity: 0.0012033
inclination: 64.5560°
perigee height: 619 km
apogee height: 636 km
right ascension of ascending node: 322.6168°
argument of perigee: 211.3212°
revolutions per day: 14.80641645
mean anomaly at epoch: 148.7177°
orbit number at epoch: 91881

The dashed part of the orbit path shows where the satellite is in the earth's shadow,  

DLR